Theta_e
304 304 306 305 306 306 306 306 306 307 307 307 307 307 309 307 308 309 306 304 307 311 311 311 313 313 312 310 310 308 309 308 307 307 304 302 301 299 299 299 299 298 298 298 298
304 304 306 305 306 305 306 307 306 306 307 307 308 308 308 309 308 307 305 305 307 310 311 312 311 311 309 306 306 306 306 304 303 303 302 300 301 300 300 299 298 298 297 297 297
305 305 306 305 305 306 306 305 306 306 306 306 308 308 308 310 307 304 305 305 307 309 311 311 310 309 305 304 303 303 304 301 301 300 300 299 299 299 300 300 298 298 297 296 296
305 305 305 305 306 306 306 305 305 307 306 306 306 307 307 308 302 303 305 305 307 309 310 310 309 306 303 305 302 303 301 301 300 299 299 299 298 298 298 297 297 297 297 297 296
304 304 305 305 306 306 306 305 305 306 306 306 307 307 308 304 301 303 303 305 307 308 309 309 308 304 304 303 302 302 299 298 298 298 298 298 298 297 296 296 296 296 296 295 295
305 305 305 305 306 306 306 306 305 306 306 306 307 306 307 302 303 301 303 305 307 308 309 308 307 304 300 300 303 300 299 298 298 298 297 298 297 297 296 295 296 296 295 295 295
305 305 305 306 306 306 307 307 306 306 306 306 307 307 306 302 303 302 303 304 305 306 305 305 304 306 301 300 299 298 298 297 296 297 297 297 298 297 295 295 295 295 295 295 294
305 305 305 306 306 307 308 308 306 306 305 306 306 305 301 303 304 304 302 302 303 304 303 302 303 301 298 297 296 298 297 298 296 296 296 297 299 296 294 295 295 294 294 294 294
306 306 306 306 307 307 307 308 307 306 306 306 306 305 303 303 303 303 304 302 302 303 303 302 303 298 298 299 299 297 299 297 297 296 297 298 298 296 294 294 295 294 294 294 293
306 306 307 307 307 306 307 306 306 307 306 306 305 305 303 302 303 303 303 305 304 304 304 301 299 300 299 300 300 299 299 298 297 297 297 297 298 296 294 294 295 295 294 294 293
306 307 308 309 307 306 307 307 307 306 305 304 303 303 303 303 303 303 304 304 302 300 299 297 300 298 297 298 297 297 297 297 297 297 296 297 297 297 295 293 294 294 293 293 293
308 311 310 307 307 307 307 306 305 306 304 305 305 304 304 303 303 303 303 302 299 298 297 299 297 296 295 296 296 296 296 297 296 297 297 296 297 297 295 294 294 294 294 293 293
311 312 311 309 308 308 308 307 307 306 306 305 305 305 304 304 301 301 301 299 298 298 298 299 297 296 296 296 296 296 297 296 296 297 297 297 297 296 296 295 294 293 293 293 293
307 309 311 310 310 309 310 310 310 310 307 306 305 305 304 304 302 301 301 300 298 298 297 298 296 296 297 297 296 298 296 296 297 298 298 297 299 297 296 297 295 295 295 294 293
308 306 306 310 307 309 310 309 310 312 310 306 305 305 305 304 303 301 301 301 298 297 299 298 297 297 298 297 296 298 295 296 298 298 297 296 297 299 294 298 298 297 297 296 294
308 307 306 307 309 308 309 308 312 312 308 306 305 305 305 304 302 302 301 300 298 299 297 297 296 297 297 296 296 295 295 295 294 295 298 295 296 300 298 298 298 297 296 295 295
306 307 307 308 309 308 309 309 312 313 306 306 306 305 304 304 303 300 299 298 300 303 301 298 297 296 296 297 297 297 296 301 302 301 301 294 296 302 297 296 296 296 296 295 293
307 309 309 310 311 310 310 313 308 307 307 305 305 305 305 304 303 301 301 301 298 298 299 301 303 297 296 298 298 296 296 302 305 302 300 293 297 304 296 295 295 295 294 295 293
307 308 309 310 309 310 316 311 309 307 305 305 305 306 306 304 305 303 300 300 298 298 302 302 301 297 296 296 297 297 299 295 297 295 296 297 297 298 295 296 295 295 295 295 293
307 307 308 309 311 317 311 310 308 306 305 305 308 306 307 305 305 304 302 300 299 298 297 299 302 298 296 297 296 297 296 299 298 303 304 301 295 301 299 298 296 296 295 294 293
307 307 307 307 313 315 312 308 307 304 306 307 307 306 305 305 305 304 304 299 298 298 298 298 299 299 297 298 299 297 297 296 297 297 302 301 309 299 298 297 296 295 295 293 293
315 306 307 308 312 303 308 305 304 304 305 305 305 305 305 304 305 305 304 302 298 299 300 298 299 300 300 297 297 297 299 299 301 300 296 296 303 298 297 295 294 295 295 293 293
312 305 307 310 310 307 304 304 304 304 304 304 304 304 303 305 305 304 303 298 298 299 300 298 300 304 302 299 297 298 297 297 297 297 300 302 309 296 294 295 296 295 294 293 293
312 308 306 311 310 307 305 305 305 304 304 304 303 303 304 304 303 305 302 298 298 299 297 297 299 303 309 308 301 299 298 297 299 301 301 300 304 303 301 299 297 294 293 293 293
314 310 304 306 309 306 305 305 304 304 304 304 303 304 305 306 305 305 301 299 298 301 297 299 302 299 300 300 299 300 300 298 298 300 302 304 299 301 301 299 296 294 293 293 293
315 312 311 307 308 306 305 305 305 304 304 304 304 303 304 306 307 306 303 301 302 299 299 297 302 300 302 300 300 301 301 301 299 299 296 299 300 300 299 295 294 294 293 293 293
311 313 310 306 306 308 308 307 306 304 303 303 303 304 303 304 303 304 303 302 301 301 299 300 300 302 304 302 301 307 304 302 301 300 298 302 305 298 298 296 295 294 294 294 293
Wind_Speed
17 15 15 15 15 13 11 10 8 7 3 3 5 8 15 19 23 24 43 31 14 15 16 15 15 15 20 24 19 13 6 6 4 3 6 6 7 14 15 24 20 10 10 6 10
15 14 15 16 17 17 17 15 10 6 6 6 4 6 5 8 32 45 38 26 11 9 10 9 17 14 26 16 12 9 5 4 2 11 11 8 9 8 7 12 13 13 10 10 14
15 14 15 16 17 17 17 17 11 8 11 24 8 4 5 3 30 37 37 28 11 9 8 9 13 32 26 18 11 7 7 14 18 24 19 14 13 3 7 9 7 7 8 11 14
16 15 15 15 15 14 13 14 14 8 12 16 29 21 8 1 8 32 35 26 9 5 4 10 12 12 9 10 9 14 13 13 14 9 8 8 8 10 9 8 7 7 7 11 16
17 15 14 14 13 12 15 15 20 17 15 9 13 12 20 44 20 29 31 22 10 11 15 21 29 16 12 20 32 20 15 15 18 18 15 14 10 11 10 8 7 5 5 10 14
15 13 13 12 11 13 14 16 16 17 17 23 10 5 19 37 23 27 28 20 17 11 12 15 24 33 18 6 9 16 26 18 9 11 8 13 7 3 5 7 6 2 5 8 10
10 10 11 9 7 8 11 13 13 16 24 25 13 33 48 23 23 19 28 25 19 19 29 28 11 15 21 25 24 23 15 11 5 2 5 5 2 5 8 7 5 3 1 4 8
10 13 10 7 8 9 8 9 12 13 11 13 12 33 23 21 21 18 19 25 22 28 31 28 27 34 11 27 6 4 3 2 5 2 2 4 3 7 7 8 8 6 4 4 6
14 12 10 10 8 7 7 6 9 14 18 14 10 19 10 11 24 22 17 22 25 29 33 30 34 23 9 6 5 7 3 4 2 4 2 1 4 9 9 11 11 9 7 7 7
13 11 9 8 8 11 22 25 18 2 4 9 17 11 15 21 11 20 22 14 12 20 14 15 14 10 9 3 4 4 3 2 3 4 4 3 8 7 11 13 14 12 11 12 11
13 10 7 6 6 12 4 4 5 15 37 26 22 19 7 16 23 17 10 24 29 29 8 20 14 14 11 11 7 6 2 3 3 3 3 5 9 10 13 14 17 17 15 16 16
13 9 9 11 10 4 2 13 13 12 17 18 16 19 22 14 11 22 17 11 14 7 6 10 13 3 6 6 5 4 3 2 4 2 3 3 12 9 15 19 20 19 19 18 17
10 8 6 8 11 10 17 19 11 7 7 7 12 12 7 17 14 16 10 13 14 18 15 11 4 6 2 3 2 2 5 3 4 3 1 9 5 5 10 19 19 21 22 21 21
9 8 4 4 5 7 11 10 7 4 4 8 7 7 8 4 9 16 7 3 4 4 5 8 2 3 3 4 3 4 5 4 2 2 3 6 5 4 3 10 16 22 23 25 23
6 7 8 5 5 4 5 4 2 1 4 4 4 5 11 8 3 11 11 14 6 3 1 2 1 3 5 2 3 3 3 1 2 1 3 2 3 4 3 6 9 12 17 20 20
6 6 6 9 5 3 3 2 1 4 2 1 2 3 4 7 3 2 7 8 4 6 12 3 1 1 1 1 2 4 1 2 2 0 1 2 3 5 3 4 5 8 12 17 17
5 6 5 5 5 6 4 1 4 5 2 0 1 2 3 3 4 5 4 6 3 1 5 1 1 2 1 2 2 5 2 2 2 2 3 0 4 9 9 10 12 16 19 16 16
5 6 5 6 6 6 7 4 6 2 3 1 2 2 3 1 2 3 2 3 4 3 3 3 0 0 0 2 2 5 5 3 5 4 6 1 6 4 5 8 14 17 17 17 15
6 6 5 6 6 8 2 4 6 5 4 5 2 2 1 1 3 3 3 1 0 2 2 2 1 1 1 2 1 1 3 1 1 0 4 3 6 12 6 7 7 10 9 12 11
6 6 5 6 9 5 4 3 2 3 3 2 4 2 3 1 1 1 2 2 3 1 1 3 2 1 3 3 8 1 6 1 2 5 5 4 5 6 5 4 7 9 9 8 11
6 3 5 9 6 1 3 3 3 3 2 2 4 3 2 3 2 2 3 1 3 3 2 3 1 2 2 5 5 3 3 3 2 1 3 5 7 7 8 5 8 13 10 8 11
2 2 6 9 2 3 2 3 3 4 3 1 3 2 4 5 3 3 3 1 6 7 2 1 2 3 1 1 2 2 3 4 2 2 2 2 8 3 8 7 9 14 11 10 10
2 3 4 7 3 0 1 1 2 3 3 3 2 1 1 4 2 2 3 1 6 3 4 6 1 4 3 2 0 4 5 4 5 2 6 2 7 3 4 7 11 13 10 10 10
1 2 2 3 3 5 4 3 2 2 3 3 4 3 2 2 1 4 4 3 4 3 5 5 2 4 4 2 2 4 6 10 6 4 4 10 15 18 15 7 17 9 6 6 7
1 1 2 1 2 4 4 4 3 3 1 4 1 3 5 3 2 3 2 3 1 7 3 2 3 4 10 13 10 11 13 13 12 5 7 2 7 20 18 12 18 7 6 7 7
2 3 3 3 1 5 1 5 7 3 6 3 3 5 5 5 5 6 6 5 4 4 4 1 2 1 5 3 3 12 14 15 17 9 13 18 23 22 16 6 9 10 9 9 8
7 4 2 2 3 3 4 5 6 7 6 2 7 4 4 6 5 2 7 2 6 8 8 4 2 1 4 3 9 7 6 14 7 9 6 7 10 4 7 9 15 10 9 10 8
Wind_Direction
123 109 95 87 82 80 77 79 91 99 101 94 97 70 39 40 63 74 31 5 24 51 96 83 86 95 76 63 65 68 78 85 114 130 114 132 103 70 74 82 71 79 82 60 28
120 111 102 94 91 88 83 70 80 92 48 327 261 274 335 16 47 43 19 18 53 76 91 64 71 71 69 46 40 62 81 69 96 113 119 98 105 108 93 80 75 78 73 55 32
114 115 109 102 96 89 75 63 70 92 58 48 70 236 255 350 34 13 13 17 57 118 105 87 93 74 66 50 29 47 99 114 97 111 110 103 81 128 111 61 60 73 62 41 29
113 113 112 107 96 85 70 57 51 81 65 88 69 72 84 194 53 11 9 15 56 136 130 95 104 75 69 68 63 98 88 107 124 117 104 95 100 88 85 115 110 85 49 22 17
105 108 115 111 93 78 71 68 58 73 65 64 82 75 70 64 39 21 14 26 92 122 108 98 88 85 91 101 84 92 98 91 108 99 96 112 100 111 108 133 131 103 48 31 18
100 100 108 112 92 88 82 67 76 68 64 49 86 87 77 68 31 31 29 50 72 79 88 90 99 109 84 86 68 120 114 111 99 105 133 115 128 166 160 153 146 123 45 18 8
100 105 113 114 103 95 71 80 69 67 71 62 75 80 68 50 40 56 39 56 73 74 92 101 81 110 101 91 109 117 107 105 81 107 129 104 114 147 162 170 170 168 355 354 359
106 109 112 116 99 93 76 85 66 66 69 56 70 66 74 55 46 57 55 65 77 80 86 98 103 92 85 121 90 86 83 87 37 27 12 197 300 193 187 188 198 209 254 304 332
117 105 106 111 97 79 84 83 90 80 69 65 68 58 59 39 44 48 50 82 86 98 94 89 86 89 110 99 92 34 83 68 179 32 316 343 287 204 204 210 224 226 237 255 284
128 114 101 104 104 107 94 83 74 144 78 54 48 66 51 38 58 52 48 65 103 107 87 52 69 82 48 29 57 26 39 40 326 348 344 276 262 214 212 218 237 243 245 250 253
134 119 92 76 119 146 66 50 74 47 68 74 73 84 81 67 52 51 52 64 71 67 55 27 72 58 42 55 84 94 110 229 258 322 265 242 268 227 217 231 244 247 252 255 254
137 117 90 74 81 102 320 92 88 119 71 69 73 70 54 58 49 47 51 61 45 69 44 64 78 129 91 70 98 161 182 276 256 351 244 292 269 239 229 239 245 257 261 262 260
157 138 105 81 87 103 86 90 91 99 82 47 49 47 39 42 46 28 32 83 70 67 68 84 108 157 147 63 282 59 19 282 279 336 69 313 276 250 243 247 258 260 263 264 261
197 201 181 111 102 88 79 84 89 72 77 342 3 34 23 57 54 33 37 74 66 111 84 75 97 98 89 58 330 342 338 264 236 303 332 346 297 281 311 278 254 264 265 265 266
190 205 209 192 94 111 98 71 75 21 71 331 16 51 45 76 121 25 41 68 74 55 226 81 42 36 48 14 327 335 6 67 103 90 300 47 272 272 308 285 280 269 279 282 275
156 168 185 208 228 163 126 70 350 45 83 49 27 29 59 34 55 36 53 72 93 65 51 94 50 14 25 195 326 316 180 92 96 335 296 23 340 276 254 257 281 284 303 301 289
144 144 150 166 168 170 165 156 37 85 318 305 94 68 84 24 40 33 44 37 48 90 36 16 16 334 340 298 303 358 357 324 307 333 346 94 276 259 260 259 262 285 298 300 286
158 160 148 143 157 162 152 60 72 206 202 163 120 105 93 32 58 24 84 67 61 57 95 24 42 164 328 40 355 23 8 47 295 320 314 318 240 256 241 280 276 276 288 296 296
158 158 154 168 153 156 150 69 189 203 158 152 96 88 20 53 114 85 47 120 5 38 38 358 222 128 32 119 300 45 47 56 172 163 271 259 269 276 258 269 277 288 295 305 317
142 146 150 157 149 142 77 171 161 189 148 144 169 184 177 224 157 107 186 169 159 133 147 167 283 159 136 106 50 305 133 128 51 347 304 289 277 261 296 299 323 315 310 313 323
140 133 147 156 147 89 134 195 197 180 157 151 191 146 174 191 178 193 170 174 185 146 113 139 202 128 149 202 181 155 153 79 131 169 311 313 289 215 245 284 307 314 304 296 320
132 59 157 158 91 51 135 191 147 159 143 120 116 127 170 166 169 174 190 217 170 156 143 135 158 261 244 77 200 202 180 174 187 175 221 281 273 236 243 271 289 307 299 287 310
119 95 162 175 127 13 248 87 168 141 173 146 135 150 163 172 157 157 146 189 162 148 166 169 177 300 194 168 211 229 191 160 114 110 213 229 277 163 231 274 309 307 302 296 298
132 44 108 163 117 136 152 198 191 174 155 145 131 123 117 153 30 173 168 171 177 138 141 154 180 228 242 268 123 207 194 197 179 194 184 233 281 295 308 301 319 317 302 300 302
147 117 147 250 244 149 148 150 156 207 200 189 91 202 168 167 174 198 144 148 136 153 121 185 256 219 264 269 260 253 245 205 205 179 224 311 250 286 296 297 302 284 288 289 302
163 162 137 109 115 134 118 208 185 183 164 228 206 183 188 178 193 193 164 200 195 175 172 165 250 276 277 176 208 265 244 222 227 221 256 266 282 281 284 284 275 282 272 273 290
194 174 166 155 130 128 221 201 208 174 205 214 196 135 200 232 203 207 195 171 179 163 180 174 200 329 269 299 300 269 232 192 187 197 178 211 239 306 292 287 295 293 272 274 283